Regional Weather Roundup
Issued by NWS

Home | Current Version | Previous Version | Text Only | Print | Product List | Glossary Off
Versions: 1 2 3 4 5 6 7 8 9 10 11 12 13 14 15 16 17 18 19 20 21 22 23 24 25 26 27 28 29 30 31 32 33 34 35 36 37 38 39 40 41 42 43 44 45 46 47 48 49 50

000
ASUS43 KIND 220659
RWRIN

WEATHER ROUNDUP FOR INDIANA
NATIONAL WEATHER SERVICE INDIANAPOLIS IN
200 AM EST WED NOV 22 2017

NOTE: "FAIR" INDICATES FEW OR NO CLOUDS BELOW 12,000 FEET WITH NO
SIGNIFICANT WEATHER AND/OR OBSTRUCTIONS TO VISIBILITY.

* - STATION DOES NOT REPORT WEATHER SUCH AS PRECIPITATION OR FOG.

+ - STATION NOT QUALITY CONTROLLED BY THE NATIONAL WEATHER SERVICE.
    USE DATA WITH CAUTION...ESPECIALLY DEWPOINT AND RELATIVE
    HUMIDITY OBSERVATIONS.

INZ001>003-010>013-019-020-220800-
NORTHWEST INDIANA

CITY           SKY/WX    TMP DP  RH WIND       PRES   REMARKS
MICHIGAN CITY+ CLOUDY    32  23  69 NW10      30.19S WCI  24
MONTICELLO +   CLEAR     26  18  72 NW10      30.19S WCI  16
RENSSELAER +   CLEAR     27  18  69 NW6       30.21R WCI  20

$$

LMZ046-743>745-220800-
SOUTHERN LAKE MICHIGAN

STATION/POSITION TIME  TEMP    WIND        PRES    WAVE
                       AIR SEA DIR/SP/G            HT
                 (UTC) (F)     (DEG/KT/KT) (MB)    (FT)
BURNS HARBOR     0640   33     320/ 14/ 19 1023.0R
MICHIGAN CITY    0630   33     300/ 17/ 19   N/A

$$

INZ004-005-014>016-021>024-220800-
NORTH CENTRAL INDIANA

CITY           SKY/WX    TMP DP  RH WIND       PRES   REMARKS
GOSHEN         CLOUDY    33  23  66 NW9       30.14R WCI  25
PERU/GRISSOM   CLOUDY    31  24  74 NW9       30.16R WCI  23
SOUTH BEND     CLOUDY    32  24  72 NW10      30.16R WCI  24

$$

INZ006>009-017-018-025>027-220800-
NORTHEAST INDIANA

CITY           SKY/WX    TMP DP  RH WIND       PRES   REMARKS
FORT WAYNE     CLOUDY    34  25  69 NW7       30.14R WCI  28
KENDALLVILLE + CLOUDY    33  24  71 NW9G18    30.11S WCI  25

$$

INZ028-029-035-036-043>045-051>053-220800-
WEST CENTRAL INDIANA

CITY           SKY/WX    TMP DP  RH WIND       PRES   REMARKS
CRAWFORDSVL +  CLEAR     26  22  87 NW8       30.16  WCI  17
GREENCASTLE +  CLEAR     28  21  74 CALM      30.21R
LAFAYETTE      CLEAR     26  20  77 NW9       30.21R WCI  17
TERRE HAUTE    CLEAR     29  22  75 NW5       30.23R WCI  24

$$

INZ030>032-037>040-046>048-054>057-064-065-220800-
CENTRAL INDIANA

CITY           SKY/WX    TMP DP  RH WIND       PRES   REMARKS
INDIANAPOLIS   CLEAR     28  22  78 NW8       30.19R WCI  20
-EAGLE CREEK   CLEAR     29  23  78 NW9       30.18R WCI  20
KOKOMO +       CLOUDY    31  24  75 NW12      30.17R WCI  22
MT COMFORT *+  CLEAR     27  25  93 NW7       30.17S WCI  19
SHELBYVILLE    CLEAR     29  22  75 NW7       30.16S WCI  22

$$

INZ033-034-041-042-049-050-058-059-220800-
EAST CENTRAL INDIANA

CITY           SKY/WX    TMP DP  RH WIND       PRES   REMARKS
MUNCIE         CLEAR     30  24  78 NW8       30.14S WCI  22
RICHMOND +     CLEAR     28  28 100 NW8       30.13R WCI  20

$$

INZ060-061-067>069-081>083-085>088-220800-
SOUTHWEST INDIANA

CITY           SKY/WX    TMP DP  RH WIND       PRES   REMARKS
EVANSVILLE     CLEAR     32  24  72 NW6       30.25R WCI  26
HUNTINGBURG +  CLEAR     30  24  78 NW7       30.23R WCI  23

$$

INZ062-063-066-070>080-084-089>092-220800-
SOUTH CENTRAL AND SOUTHEAST INDIANA

CITY           SKY/WX    TMP DP  RH WIND       PRES   REMARKS
BLOOMINGTON    CLEAR     30  21  69 NW3       30.19S
MADISON *+     CLEAR     32  27  80 NW6       30.19R WCI  26
SEYMOUR +      CLEAR     32  23  69 NW7       30.19R WCI  26

$$





USA.gov is the U.S. government's official web portal to all federal, state and local government web resources and services.